owner,sensor,date,latitude,longitude,vertical_datum,wind_speed,wind_to_direction,wind_speed_of_gust,qcFlag 
WAVCIS,ioos:station:WAVCIS:CSI09:1,2013-03-01T00:00:00Z,29.1015,-89.9782,0.0,6.801,337.0,,'11111222,11111222,99999999' 
WAVCIS,ioos:station:WAVCIS:CSI09:1,2013-03-01T01:00:00Z,29.1015,-89.9782,0.0,7.09,338.0,,'11111222,11111222,99999999' 
WAVCIS,ioos:station:WAVCIS:CSI09:1,2013-03-01T02:00:00Z,29.1015,-89.9782,0.0,7.93,331.0,,'11111222,11111222,99999999' 
WAVCIS,ioos:station:WAVCIS:CSI09:1,2013-03-01T03:00:00Z,29.1015,-89.9782,0.0,8.14,324.0,,'11111222,11111222,99999999' 
WAVCIS,ioos:station:WAVCIS:CSI09:1,2013-03-01T04:00:00Z,29.1015,-89.9782,0.0,7.93,321.0,,'11111222,11111222,99999999' 
WAVCIS,ioos:station:WAVCIS:CSI09:1,2013-03-01T05:00:00Z,29.1015,-89.9782,0.0,6.896,328.0,,'11111222,11111222,99999999' 
WAVCIS,ioos:station:WAVCIS:CSI09:1,2013-03-01T06:00:00Z,29.1015,-89.9782,0.0,8.04,321.0,,'11111222,11111222,99999999' 
WAVCIS,ioos:station:WAVCIS:CSI09:1,2013-03-01T07:00:00Z,29.1015,-89.9782,0.0,7.89,316.0,,'11111222,11111222,99999999' 
WAVCIS,ioos:station:WAVCIS:CSI09:1,2013-03-01T08:00:00Z,29.1015,-89.9782,0.0,7.68,312.0,,'11111222,11111222,99999999' 
WAVCIS,ioos:station:WAVCIS:CSI09:1,2013-03-01T09:00:00Z,29.1015,-89.9782,0.0,8.18,305.0,,'11111222,11111222,99999999' 
WAVCIS,ioos:station:WAVCIS:CSI09:1,2013-03-01T10:00:00Z,29.1015,-89.9782,0.0,7.4,298.0,,'11111222,11111222,99999999' 
WAVCIS,ioos:station:WAVCIS:CSI09:1,2013-03-01T11:00:00Z,29.1015,-89.9782,0.0,7.19,295.0,,'11111222,11111222,99999999' 
WAVCIS,ioos:station:WAVCIS:CSI09:1,2013-03-01T12:00:00Z,29.1015,-89.9782,0.0,9.26,308.0,,'11111222,11111222,99999999' 
WAVCIS,ioos:station:WAVCIS:CSI09:1,2013-03-01T13:00:00Z,29.1015,-89.9782,0.0,7.58,312.0,,'11111222,11111222,99999999' 
WAVCIS,ioos:station:WAVCIS:CSI09:1,2013-03-01T14:00:00Z,29.1015,-89.9782,0.0,7.08,322.0,,'11111222,11111222,99999999' 
WAVCIS,ioos:station:WAVCIS:CSI09:1,2013-03-01T15:00:00Z,29.1015,-89.9782,0.0,6.737,322.0,,'11111222,11111222,99999999' 
WAVCIS,ioos:station:WAVCIS:CSI09:1,2013-03-01T16:00:00Z,29.1015,-89.9782,0.0,6.609,321.0,,'11111222,11111222,99999999' 
WAVCIS,ioos:station:WAVCIS:CSI09:1,2013-03-01T17:00:00Z,29.1015,-89.9782,0.0,5.285,305.0,,'11111222,11111222,99999999' 
WAVCIS,ioos:station:WAVCIS:CSI09:1,2013-03-01T18:00:00Z,29.1015,-89.9782,0.0,5.789,295.0,,'11111222,11111222,99999999' 
WAVCIS,ioos:station:WAVCIS:CSI09:1,2013-03-01T19:00:00Z,29.1015,-89.9782,0.0,7.34,296.0,,'11111222,11111222,99999999' 
WAVCIS,ioos:station:WAVCIS:CSI09:1,2013-03-01T20:00:00Z,29.1015,-89.9782,0.0,6.667,285.0,,'11111222,11111222,99999999' 
WAVCIS,ioos:station:WAVCIS:CSI09:1,2013-03-01T21:00:00Z,29.1015,-89.9782,0.0,6.248,287.0,,'11111222,11111222,99999999' 
WAVCIS,ioos:station:WAVCIS:CSI09:1,2013-03-01T22:00:00Z,29.1015,-89.9782,0.0,6.795,278.0,,'11111222,11111222,99999999' 
WAVCIS,ioos:station:WAVCIS:CSI09:1,2013-03-01T23:00:00Z,29.1015,-89.9782,0.0,8.1,280.0,,'11111222,11111222,99999999' 
WAVCIS,ioos:station:WAVCIS:CSI09:1,2013-03-02T00:00:00Z,29.1015,-89.9782,0.0,11.16,328.0,,'11111222,11111222,99999999' 
WAVCIS,ioos:station:WAVCIS:CSI09:1,2013-03-02T01:00:00Z,29.1015,-89.9782,0.0,10.5,316.0,,'11111222,11111222,99999999' 
WAVCIS,ioos:station:WAVCIS:CSI09:1,2013-03-02T02:00:00Z,29.1015,-89.9782,0.0,11.03,312.0,,'11111222,11111222,99999999' 
WAVCIS,ioos:station:WAVCIS:CSI09:1,2013-03-02T03:00:00Z,29.1015,-89.9782,0.0,10.78,318.0,,'11111222,11111222,99999999' 
WAVCIS,ioos:station:WAVCIS:CSI09:1,2013-03-02T04:00:00Z,29.1015,-89.9782,0.0,8.64,315.0,,'11111222,11111222,99999999' 
WAVCIS,ioos:station:WAVCIS:CSI09:1,2013-03-02T05:00:00Z,29.1015,-89.9782,0.0,7.08,332.0,,'11111222,11111222,99999999' 
WAVCIS,ioos:station:WAVCIS:CSI09:1,2013-03-02T06:00:00Z,29.1015,-89.9782,0.0,6.498,346.0,,'11111222,11111222,99999999' 
WAVCIS,ioos:station:WAVCIS:CSI09:1,2013-03-02T07:00:00Z,29.1015,-89.9782,0.0,5.783,0.0,,'11111222,11111222,99999999' 
WAVCIS,ioos:station:WAVCIS:CSI09:1,2013-03-02T08:00:00Z,29.1015,-89.9782,0.0,5.77,13.0,,'11111222,11111222,99999999' 
WAVCIS,ioos:station:WAVCIS:CSI09:1,2013-03-02T09:00:00Z,29.1015,-89.9782,0.0,4.366,9.0,,'11111222,11111222,99999999' 
WAVCIS,ioos:station:WAVCIS:CSI09:1,2013-03-02T10:00:00Z,29.1015,-89.9782,0.0,4.506,4.0,,'11111222,11111222,99999999' 
WAVCIS,ioos:station:WAVCIS:CSI09:1,2013-03-02T11:00:00Z,29.1015,-89.9782,0.0,5.252,15.0,,'11111222,11111222,99999999' 
WAVCIS,ioos:station:WAVCIS:CSI09:1,2013-03-02T12:00:00Z,29.1015,-89.9782,0.0,6.061,13.0,,'11111222,11111222,99999999' 
WAVCIS,ioos:station:WAVCIS:CSI09:1,2013-03-02T13:00:00Z,29.1015,-89.9782,0.0,6.627,15.0,,'11111222,11111222,99999999' 
WAVCIS,ioos:station:WAVCIS:CSI09:1,2013-03-02T14:00:00Z,29.1015,-89.9782,0.0,5.05,17.0,,'11111222,11111222,99999999' 
WAVCIS,ioos:station:WAVCIS:CSI09:1,2013-03-02T15:00:00Z,29.1015,-89.9782,0.0,5.633,16.0,,'11111222,11111222,99999999' 
WAVCIS,ioos:station:WAVCIS:CSI09:1,2013-03-02T16:00:00Z,29.1015,-89.9782,0.0,4.811,18.0,,'11111222,11111222,99999999' 
WAVCIS,ioos:station:WAVCIS:CSI09:1,2013-03-02T17:00:00Z,29.1015,-89.9782,0.0,3.462,1.0,,'11111222,11111222,99999999' 
WAVCIS,ioos:station:WAVCIS:CSI09:1,2013-03-02T18:00:00Z,29.1015,-89.9782,0.0,3.399,331.0,,'11111222,11111222,99999999' 
WAVCIS,ioos:station:WAVCIS:CSI09:1,2013-03-02T19:00:00Z,29.1015,-89.9782,0.0,3.771,318.0,,'11111222,11111222,99999999' 
WAVCIS,ioos:station:WAVCIS:CSI09:1,2013-03-02T20:00:00Z,29.1015,-89.9782,0.0,4.917,343.0,,'11111222,11111222,99999999' 
WAVCIS,ioos:station:WAVCIS:CSI09:1,2013-03-02T21:00:00Z,29.1015,-89.9782,0.0,6.321,357.0,,'11111222,11111222,99999999' 
WAVCIS,ioos:station:WAVCIS:CSI09:1,2013-03-02T22:00:00Z,29.1015,-89.9782,0.0,8.55,354.0,,'11111222,11111222,99999999' 
WAVCIS,ioos:station:WAVCIS:CSI09:1,2013-03-02T23:00:00Z,29.1015,-89.9782,0.0,8.97,333.0,,'11111222,11111222,99999999' 
WAVCIS,ioos:station:WAVCIS:CSI09:1,2013-03-03T00:00:00Z,29.1015,-89.9782,0.0,11.05,352.0,,'11111222,11111222,99999999' 
WAVCIS,ioos:station:WAVCIS:CSI09:1,2013-03-03T01:00:00Z,29.1015,-89.9782,0.0,13.02,347.0,,'11111222,11111222,99999999' 
WAVCIS,ioos:station:WAVCIS:CSI09:1,2013-03-03T02:00:00Z,29.1015,-89.9782,0.0,11.67,341.0,,'11111222,11111222,99999999' 
WAVCIS,ioos:station:WAVCIS:CSI09:1,2013-03-03T03:00:00Z,29.1015,-89.9782,0.0,10.92,340.0,,'11111222,11111222,99999999' 
WAVCIS,ioos:station:WAVCIS:CSI09:1,2013-03-03T04:00:00Z,29.1015,-89.9782,0.0,11.55,354.0,,'11111222,11111222,99999999' 
WAVCIS,ioos:station:WAVCIS:CSI09:1,2013-03-03T05:00:00Z,29.1015,-89.9782,0.0,9.64,357.0,,'11111222,11111222,99999999' 
WAVCIS,ioos:station:WAVCIS:CSI09:1,2013-03-03T06:00:00Z,29.1015,-89.9782,0.0,10.47,5.0,,'11111222,11111222,99999999' 
WAVCIS,ioos:station:WAVCIS:CSI09:1,2013-03-03T07:00:00Z,29.1015,-89.9782,0.0,8.94,359.0,,'11111222,11111222,99999999' 
WAVCIS,ioos:station:WAVCIS:CSI09:1,2013-03-03T08:00:00Z,29.1015,-89.9782,0.0,8.88,2.0,,'11111222,11111222,99999999' 
WAVCIS,ioos:station:WAVCIS:CSI09:1,2013-03-03T09:00:00Z,29.1015,-89.9782,0.0,8.02,359.0,,'11111222,11111222,99999999' 
WAVCIS,ioos:station:WAVCIS:CSI09:1,2013-03-03T10:00:00Z,29.1015,-89.9782,0.0,6.925,349.0,,'11111222,11111222,99999999' 
WAVCIS,ioos:station:WAVCIS:CSI09:1,2013-03-03T11:00:00Z,29.1015,-89.9782,0.0,7.54,344.0,,'11111222,11111222,99999999' 
WAVCIS,ioos:station:WAVCIS:CSI09:1,2013-03-03T12:00:00Z,29.1015,-89.9782,0.0,7.56,342.0,,'11111222,11111222,99999999' 
WAVCIS,ioos:station:WAVCIS:CSI09:1,2013-03-03T13:00:00Z,29.1015,-89.9782,0.0,7.43,338.0,,'11111222,11111222,99999999' 
WAVCIS,ioos:station:WAVCIS:CSI09:1,2013-03-03T14:00:00Z,29.1015,-89.9782,0.0,7.01,339.0,,'11111222,11111222,99999999' 
WAVCIS,ioos:station:WAVCIS:CSI09:1,2013-03-03T15:00:00Z,29.1015,-89.9782,0.0,5.984,337.0,,'11111222,11111222,99999999' 
WAVCIS,ioos:station:WAVCIS:CSI09:1,2013-03-03T16:00:00Z,29.1015,-89.9782,0.0,5.769,348.0,,'11111222,11111222,99999999' 
WAVCIS,ioos:station:WAVCIS:CSI09:1,2013-03-03T17:00:00Z,29.1015,-89.9782,0.0,4.384,331.0,,'11111222,11111222,99999999' 
WAVCIS,ioos:station:WAVCIS:CSI09:1,2013-03-03T18:00:00Z,29.1015,-89.9782,0.0,4.232,303.0,,'11111222,11111222,99999999' 
WAVCIS,ioos:station:WAVCIS:CSI09:1,2013-03-03T19:00:00Z,29.1015,-89.9782,0.0,3.02,292.0,,'11111222,11111222,99999999' 
WAVCIS,ioos:station:WAVCIS:CSI09:1,2013-03-03T20:00:00Z,29.1015,-89.9782,0.0,4.96,245.0,,'11111222,11111222,99999999' 
WAVCIS,ioos:station:WAVCIS:CSI09:1,2013-03-03T21:00:00Z,29.1015,-89.9782,0.0,6.759,284.0,,'11111222,11111222,99999999' 
WAVCIS,ioos:station:WAVCIS:CSI09:1,2013-03-03T22:00:00Z,29.1015,-89.9782,0.0,7.01,255.0,,'11111222,11111222,99999999' 
WAVCIS,ioos:station:WAVCIS:CSI09:1,2013-03-03T23:00:00Z,29.1015,-89.9782,0.0,6.612,258.0,,'11111222,11111222,99999999' 
WAVCIS,ioos:station:WAVCIS:CSI09:1,2013-03-04T00:00:00Z,29.1015,-89.9782,0.0,6.045,263.0,,'11111222,11111222,99999999' 
WAVCIS,ioos:station:WAVCIS:CSI09:1,2013-03-04T01:00:00Z,29.1015,-89.9782,0.0,6.159,262.0,,'11111222,11111222,99999999' 
WAVCIS,ioos:station:WAVCIS:CSI09:1,2013-03-04T02:00:00Z,29.1015,-89.9782,0.0,4.748,262.0,,'11111222,11111222,99999999' 
WAVCIS,ioos:station:WAVCIS:CSI09:1,2013-03-04T03:00:00Z,29.1015,-89.9782,0.0,4.126,242.0,,'11111222,11111222,99999999' 
WAVCIS,ioos:station:WAVCIS:CSI09:1,2013-03-04T04:00:00Z,29.1015,-89.9782,0.0,3.104,233.0,,'11111222,11111222,99999999' 
WAVCIS,ioos:station:WAVCIS:CSI09:1,2013-03-04T05:00:00Z,29.1015,-89.9782,0.0,2.86,215.0,,'11111222,11111222,99999999' 
WAVCIS,ioos:station:WAVCIS:CSI09:1,2013-03-04T06:00:00Z,29.1015,-89.9782,0.0,3.171,191.0,,'11111222,11111222,99999999' 
WAVCIS,ioos:station:WAVCIS:CSI09:1,2013-03-04T07:00:00Z,29.1015,-89.9782,0.0,4.29,199.0,,'11111222,11111222,99999999' 
WAVCIS,ioos:station:WAVCIS:CSI09:1,2013-03-04T08:00:00Z,29.1015,-89.9782,0.0,4.474,192.0,,'11111222,11111222,99999999' 
WAVCIS,ioos:station:WAVCIS:CSI09:1,2013-03-04T09:00:00Z,29.1015,-89.9782,0.0,5.562,181.0,,'11111222,11111222,99999999' 
WAVCIS,ioos:station:WAVCIS:CSI09:1,2013-03-04T10:00:00Z,29.1015,-89.9782,0.0,6.495,175.0,,'11111222,11111222,99999999' 
WAVCIS,ioos:station:WAVCIS:CSI09:1,2013-03-04T11:00:00Z,29.1015,-89.9782,0.0,4.68,178.0,,'11111222,11111222,99999999' 
WAVCIS,ioos:station:WAVCIS:CSI09:1,2013-03-04T12:00:00Z,29.1015,-89.9782,0.0,5.922,176.0,,'11111222,11111222,99999999' 
WAVCIS,ioos:station:WAVCIS:CSI09:1,2013-03-04T13:00:00Z,29.1015,-89.9782,0.0,8.06,178.0,,'11111222,11111222,99999999' 
WAVCIS,ioos:station:WAVCIS:CSI09:1,2013-03-04T14:00:00Z,29.1015,-89.9782,0.0,7.83,178.0,,'11111222,11111222,99999999' 
WAVCIS,ioos:station:WAVCIS:CSI09:1,2013-03-04T15:00:00Z,29.1015,-89.9782,0.0,8.22,179.0,,'11111222,11111222,99999999' 
WAVCIS,ioos:station:WAVCIS:CSI09:1,2013-03-04T16:00:00Z,29.1015,-89.9782,0.0,7.47,182.0,,'11111222,11111222,99999999' 
WAVCIS,ioos:station:WAVCIS:CSI09:1,2013-03-04T17:00:00Z,29.1015,-89.9782,0.0,6.517,183.0,,'11111222,11111222,99999999' 
WAVCIS,ioos:station:WAVCIS:CSI09:1,2013-03-04T18:00:00Z,29.1015,-89.9782,0.0,7.12,178.0,,'11111222,11111222,99999999' 
WAVCIS,ioos:station:WAVCIS:CSI09:1,2013-03-04T19:00:00Z,29.1015,-89.9782,0.0,6.785,178.0,,'11111222,11111222,99999999' 
WAVCIS,ioos:station:WAVCIS:CSI09:1,2013-03-04T20:00:00Z,29.1015,-89.9782,0.0,6.383,176.0,,'11111222,11111222,99999999' 
WAVCIS,ioos:station:WAVCIS:CSI09:1,2013-03-04T21:00:00Z,29.1015,-89.9782,0.0,5.824,173.0,,'11111222,11111222,99999999' 
WAVCIS,ioos:station:WAVCIS:CSI09:1,2013-03-04T22:00:00Z,29.1015,-89.9782,0.0,6.4,173.0,,'11111222,11111222,99999999' 
WAVCIS,ioos:station:WAVCIS:CSI09:1,2013-03-04T23:00:00Z,29.1015,-89.9782,0.0,6.637,175.0,,'11111222,11111222,99999999' 
WAVCIS,ioos:station:WAVCIS:CSI09:1,2013-03-05T00:00:00Z,29.1015,-89.9782,0.0,7.04,176.0,,'11111222,11111222,99999999' 
WAVCIS,ioos:station:WAVCIS:CSI09:1,2013-03-05T01:00:00Z,29.1015,-89.9782,0.0,7.94,173.0,,'11111222,11111222,99999999' 
WAVCIS,ioos:station:WAVCIS:CSI09:1,2013-03-05T02:00:00Z,29.1015,-89.9782,0.0,7.92,176.0,,'11111222,11111222,99999999' 
WAVCIS,ioos:station:WAVCIS:CSI09:1,2013-03-05T03:00:00Z,29.1015,-89.9782,0.0,8.67,176.0,,'11111222,11111222,99999999' 
WAVCIS,ioos:station:WAVCIS:CSI09:1,2013-03-05T04:00:00Z,29.1015,-89.9782,0.0,9.27,178.0,,'11111222,11111222,99999999' 
WAVCIS,ioos:station:WAVCIS:CSI09:1,2013-03-05T05:00:00Z,29.1015,-89.9782,0.0,5.532,184.0,,'11111222,11111222,99999999' 
WAVCIS,ioos:station:WAVCIS:CSI09:1,2013-03-05T06:00:00Z,29.1015,-89.9782,0.0,3.685,200.0,,'11111222,11111222,99999999' 
WAVCIS,ioos:station:WAVCIS:CSI09:1,2013-03-05T07:00:00Z,29.1015,-89.9782,0.0,3.954,197.0,,'11111222,11111222,99999999' 
WAVCIS,ioos:station:WAVCIS:CSI09:1,2013-03-05T08:00:00Z,29.1015,-89.9782,0.0,5.029,195.0,,'11111222,11111222,99999999' 
WAVCIS,ioos:station:WAVCIS:CSI09:1,2013-03-05T09:00:00Z,29.1015,-89.9782,0.0,4.732,201.0,,'11111222,11111222,99999999' 
WAVCIS,ioos:station:WAVCIS:CSI09:1,2013-03-05T10:00:00Z,29.1015,-89.9782,0.0,5.455,208.0,,'11111222,11111222,99999999' 
WAVCIS,ioos:station:WAVCIS:CSI09:1,2013-03-05T11:00:00Z,29.1015,-89.9782,0.0,3.949,210.0,,'11111222,11111222,99999999' 
WAVCIS,ioos:station:WAVCIS:CSI09:1,2013-03-05T12:00:00Z,29.1015,-89.9782,0.0,3.553,210.0,,'11111222,11111222,99999999' 
WAVCIS,ioos:station:WAVCIS:CSI09:1,2013-03-05T13:00:00Z,29.1015,-89.9782,0.0,3.051,198.0,,'11111222,11111222,99999999' 
WAVCIS,ioos:station:WAVCIS:CSI09:1,2013-03-05T14:00:00Z,29.1015,-89.9782,0.0,4.648,211.0,,'11111222,11111222,99999999' 
WAVCIS,ioos:station:WAVCIS:CSI09:1,2013-03-05T15:00:00Z,29.1015,-89.9782,0.0,5.716,276.0,,'11111222,11111222,99999999' 
WAVCIS,ioos:station:WAVCIS:CSI09:1,2013-03-05T16:00:00Z,29.1015,-89.9782,0.0,5.853,241.0,,'11111222,11111222,99999999' 
WAVCIS,ioos:station:WAVCIS:CSI09:1,2013-03-05T17:00:00Z,29.1015,-89.9782,0.0,6.058,221.0,,'11111222,11111222,99999999' 
WAVCIS,ioos:station:WAVCIS:CSI09:1,2013-03-05T18:00:00Z,29.1015,-89.9782,0.0,4.871,208.0,,'11111222,11111222,99999999' 
WAVCIS,ioos:station:WAVCIS:CSI09:1,2013-03-05T19:00:00Z,29.1015,-89.9782,0.0,8.2,226.0,,'11111222,11111222,99999999' 
WAVCIS,ioos:station:WAVCIS:CSI09:1,2013-03-05T20:00:00Z,29.1015,-89.9782,0.0,8.3,230.0,,'11111222,11111222,99999999' 
WAVCIS,ioos:station:WAVCIS:CSI09:1,2013-03-05T21:00:00Z,29.1015,-89.9782,0.0,7.45,235.0,,'11111222,11111222,99999999' 
WAVCIS,ioos:station:WAVCIS:CSI09:1,2013-03-05T22:00:00Z,29.1015,-89.9782,0.0,9.98,237.0,,'11111222,11111222,99999999' 
WAVCIS,ioos:station:WAVCIS:CSI09:1,2013-03-05T23:00:00Z,29.1015,-89.9782,0.0,9.48,245.0,,'11111222,11111222,99999999' 
WAVCIS,ioos:station:WAVCIS:CSI09:1,2013-03-06T00:00:00Z,29.1015,-89.9782,0.0,7.83,256.0,,'11111222,11111222,99999999' 
WAVCIS,ioos:station:WAVCIS:CSI09:1,2013-03-06T01:00:00Z,29.1015,-89.9782,0.0,7.16,258.0,,'11111222,11111222,99999999' 
WAVCIS,ioos:station:WAVCIS:CSI09:1,2013-03-06T02:00:00Z,29.1015,-89.9782,0.0,6.851,301.0,,'11111222,11111222,99999999' 
WAVCIS,ioos:station:WAVCIS:CSI09:1,2013-03-06T03:00:00Z,29.1015,-89.9782,0.0,8.43,332.0,,'11111222,11111222,99999999' 
WAVCIS,ioos:station:WAVCIS:CSI09:1,2013-03-06T04:00:00Z,29.1015,-89.9782,0.0,9.9,338.0,,'11111222,11111222,99999999' 
WAVCIS,ioos:station:WAVCIS:CSI09:1,2013-03-06T05:00:00Z,29.1015,-89.9782,0.0,12.3,352.0,,'11111222,11111222,99999999' 
WAVCIS,ioos:station:WAVCIS:CSI09:1,2013-03-06T06:00:00Z,29.1015,-89.9782,0.0,11.68,357.0,,'11111222,11111222,99999999' 
WAVCIS,ioos:station:WAVCIS:CSI09:1,2013-03-06T07:00:00Z,29.1015,-89.9782,0.0,13.43,3.0,,'11111222,11111222,99999999' 
WAVCIS,ioos:station:WAVCIS:CSI09:1,2013-03-06T08:00:00Z,29.1015,-89.9782,0.0,14.47,357.0,,'11111222,11111222,99999999' 
WAVCIS,ioos:station:WAVCIS:CSI09:1,2013-03-06T09:00:00Z,29.1015,-89.9782,0.0,13.9,359.0,,'11111222,11111222,99999999' 
WAVCIS,ioos:station:WAVCIS:CSI09:1,2013-03-06T10:00:00Z,29.1015,-89.9782,0.0,14.5,0.0,,'11111222,11111222,99999999' 
WAVCIS,ioos:station:WAVCIS:CSI09:1,2013-03-06T11:00:00Z,29.1015,-89.9782,0.0,14.86,8.0,,'11111222,11111222,99999999' 
WAVCIS,ioos:station:WAVCIS:CSI09:1,2013-03-06T12:00:00Z,29.1015,-89.9782,0.0,15.84,5.0,,'11111222,11111222,99999999' 
WAVCIS,ioos:station:WAVCIS:CSI09:1,2013-03-06T13:00:00Z,29.1015,-89.9782,0.0,14.36,6.0,,'11111222,11111222,99999999' 
WAVCIS,ioos:station:WAVCIS:CSI09:1,2013-03-06T14:00:00Z,29.1015,-89.9782,0.0,13.15,4.0,,'11111222,11111222,99999999' 
WAVCIS,ioos:station:WAVCIS:CSI09:1,2013-03-06T15:00:00Z,29.1015,-89.9782,0.0,11.75,9.0,,'11111222,11111222,99999999' 
WAVCIS,ioos:station:WAVCIS:CSI09:1,2013-03-06T16:00:00Z,29.1015,-89.9782,0.0,8.85,5.0,,'11111222,11111222,99999999' 
WAVCIS,ioos:station:WAVCIS:CSI09:1,2013-03-06T17:00:00Z,29.1015,-89.9782,0.0,8.62,12.0,,'11111222,11111222,99999999' 
WAVCIS,ioos:station:WAVCIS:CSI09:1,2013-03-06T18:00:00Z,29.1015,-89.9782,0.0,7.84,357.0,,'11111222,11111222,99999999' 
WAVCIS,ioos:station:WAVCIS:CSI09:1,2013-03-06T19:00:00Z,29.1015,-89.9782,0.0,5.962,341.0,,'11111222,11111222,99999999' 
WAVCIS,ioos:station:WAVCIS:CSI09:1,2013-03-06T20:00:00Z,29.1015,-89.9782,0.0,7.05,334.0,,'11111222,11111222,99999999' 
WAVCIS,ioos:station:WAVCIS:CSI09:1,2013-03-06T21:00:00Z,29.1015,-89.9782,0.0,5.874,350.0,,'11111222,11111222,99999999' 
WAVCIS,ioos:station:WAVCIS:CSI09:1,2013-03-06T22:00:00Z,29.1015,-89.9782,0.0,5.782,356.0,,'11111222,11111222,99999999' 
WAVCIS,ioos:station:WAVCIS:CSI09:1,2013-03-06T23:00:00Z,29.1015,-89.9782,0.0,4.087,341.0,,'11111222,11111222,99999999' 
WAVCIS,ioos:station:WAVCIS:CSI09:1,2013-03-07T00:00:00Z,29.1015,-89.9782,0.0,3.498,321.0,,'11111222,11111222,99999999' 
WAVCIS,ioos:station:WAVCIS:CSI09:1,2013-03-07T01:00:00Z,29.1015,-89.9782,0.0,2.611,335.0,,'11111222,11111222,99999999' 
WAVCIS,ioos:station:WAVCIS:CSI09:1,2013-03-07T02:00:00Z,29.1015,-89.9782,0.0,1.633,287.0,,'11111222,11111222,99999999' 
WAVCIS,ioos:station:WAVCIS:CSI09:1,2013-03-07T03:00:00Z,29.1015,-89.9782,0.0,0.875,297.0,,'11111222,11111222,99999999' 
WAVCIS,ioos:station:WAVCIS:CSI09:1,2013-03-07T04:00:00Z,29.1015,-89.9782,0.0,3.895,321.0,,'11111222,11111222,99999999' 
WAVCIS,ioos:station:WAVCIS:CSI09:1,2013-03-07T05:00:00Z,29.1015,-89.9782,0.0,7.08,340.0,,'11111222,11111222,99999999' 
WAVCIS,ioos:station:WAVCIS:CSI09:1,2013-03-07T06:00:00Z,29.1015,-89.9782,0.0,10.23,31.0,,'11111222,11111222,99999999' 
WAVCIS,ioos:station:WAVCIS:CSI09:1,2013-03-07T07:00:00Z,29.1015,-89.9782,0.0,9.28,37.0,,'11111222,11111222,99999999' 
WAVCIS,ioos:station:WAVCIS:CSI09:1,2013-03-07T08:00:00Z,29.1015,-89.9782,0.0,8.51,45.0,,'11111222,11111222,99999999' 
WAVCIS,ioos:station:WAVCIS:CSI09:1,2013-03-07T09:00:00Z,29.1015,-89.9782,0.0,8.69,55.0,,'11111222,11111222,99999999' 
WAVCIS,ioos:station:WAVCIS:CSI09:1,2013-03-07T10:00:00Z,29.1015,-89.9782,0.0,6.768,49.0,,'11111222,11111222,99999999' 
WAVCIS,ioos:station:WAVCIS:CSI09:1,2013-03-07T11:00:00Z,29.1015,-89.9782,0.0,4.723,35.0,,'11111222,11111222,99999999' 
WAVCIS,ioos:station:WAVCIS:CSI09:1,2013-03-07T12:00:00Z,29.1015,-89.9782,0.0,5.689,48.0,,'11111222,11111222,99999999' 
WAVCIS,ioos:station:WAVCIS:CSI09:1,2013-03-07T13:00:00Z,29.1015,-89.9782,0.0,5.748,53.0,,'11111222,11111222,99999999' 
WAVCIS,ioos:station:WAVCIS:CSI09:1,2013-03-07T14:00:00Z,29.1015,-89.9782,0.0,6.02,67.0,,'11111222,11111222,99999999' 
WAVCIS,ioos:station:WAVCIS:CSI09:1,2013-03-07T15:00:00Z,29.1015,-89.9782,0.0,5.834,56.0,,'11111222,11111222,99999999' 
WAVCIS,ioos:station:WAVCIS:CSI09:1,2013-03-07T16:00:00Z,29.1015,-89.9782,0.0,5.864,61.0,,'11111222,11111222,99999999' 
WAVCIS,ioos:station:WAVCIS:CSI09:1,2013-03-07T17:00:00Z,29.1015,-89.9782,0.0,5.863,64.0,,'11111222,11111222,99999999' 
WAVCIS,ioos:station:WAVCIS:CSI09:1,2013-03-07T18:00:00Z,29.1015,-89.9782,0.0,6.165,59.0,,'11111222,11111222,99999999' 
WAVCIS,ioos:station:WAVCIS:CSI09:1,2013-03-07T19:00:00Z,29.1015,-89.9782,0.0,5.4,52.0,,'11111222,11111222,99999999' 
WAVCIS,ioos:station:WAVCIS:CSI09:1,2013-03-07T20:00:00Z,29.1015,-89.9782,0.0,4.442,50.0,,'11111222,11111222,99999999' 
WAVCIS,ioos:station:WAVCIS:CSI09:1,2013-03-07T21:00:00Z,29.1015,-89.9782,0.0,3.398,64.0,,'11111222,11111222,99999999' 
WAVCIS,ioos:station:WAVCIS:CSI09:1,2013-03-07T22:00:00Z,29.1015,-89.9782,0.0,2.909,61.0,,'11111222,11111222,99999999' 
WAVCIS,ioos:station:WAVCIS:CSI09:1,2013-03-07T23:00:00Z,29.1015,-89.9782,0.0,2.682,76.0,,'11111222,11111222,99999999' 
WAVCIS,ioos:station:WAVCIS:CSI09:1,2013-03-08T00:00:00Z,29.1015,-89.9782,0.0,2.309,79.0,,'11111222,11111222,99999999' 
WAVCIS,ioos:station:WAVCIS:CSI09:1,2013-03-08T01:00:00Z,29.1015,-89.9782,0.0,1.841,81.0,,'11111222,11111222,99999999' 
WAVCIS,ioos:station:WAVCIS:CSI09:1,2013-03-08T02:00:00Z,29.1015,-89.9782,0.0,1.178,107.0,,'11111222,11111222,99999999' 
WAVCIS,ioos:station:WAVCIS:CSI09:1,2013-03-08T03:00:00Z,29.1015,-89.9782,0.0,1.351,122.0,,'11111222,11111222,99999999' 
WAVCIS,ioos:station:WAVCIS:CSI09:1,2013-03-08T04:00:00Z,29.1015,-89.9782,0.0,1.403,99.0,,'11111222,11111222,99999999' 
WAVCIS,ioos:station:WAVCIS:CSI09:1,2013-03-08T05:00:00Z,29.1015,-89.9782,0.0,1.722,92.0,,'11111222,11111222,99999999' 
WAVCIS,ioos:station:WAVCIS:CSI09:1,2013-03-08T06:00:00Z,29.1015,-89.9782,0.0,2.136,105.0,,'11111222,11111222,99999999' 
WAVCIS,ioos:station:WAVCIS:CSI09:1,2013-03-08T07:00:00Z,29.1015,-89.9782,0.0,1.893,133.0,,'11111222,11111222,99999999' 
WAVCIS,ioos:station:WAVCIS:CSI09:1,2013-03-08T08:00:00Z,29.1015,-89.9782,0.0,2.002,89.0,,'11111222,11111222,99999999' 
WAVCIS,ioos:station:WAVCIS:CSI09:1,2013-03-08T09:00:00Z,29.1015,-89.9782,0.0,2.249,71.0,,'11111222,11111222,99999999' 
WAVCIS,ioos:station:WAVCIS:CSI09:1,2013-03-08T10:00:00Z,29.1015,-89.9782,0.0,3.271,69.0,,'11111222,11111222,99999999' 
WAVCIS,ioos:station:WAVCIS:CSI09:1,2013-03-08T11:00:00Z,29.1015,-89.9782,0.0,4.007,64.0,,'11111222,11111222,99999999' 
WAVCIS,ioos:station:WAVCIS:CSI09:1,2013-03-08T12:00:00Z,29.1015,-89.9782,0.0,4.68,64.0,,'11111222,11111222,99999999' 
WAVCIS,ioos:station:WAVCIS:CSI09:1,2013-03-08T13:00:00Z,29.1015,-89.9782,0.0,6.08,66.0,,'11111222,11111222,99999999' 
WAVCIS,ioos:station:WAVCIS:CSI09:1,2013-03-08T14:00:00Z,29.1015,-89.9782,0.0,7.02,66.0,,'11111222,11111222,99999999' 
WAVCIS,ioos:station:WAVCIS:CSI09:1,2013-03-08T15:00:00Z,29.1015,-89.9782,0.0,7.26,57.0,,'11111222,11111222,99999999' 
WAVCIS,ioos:station:WAVCIS:CSI09:1,2013-03-08T16:00:00Z,29.1015,-89.9782,0.0,6.606,58.0,,'11111222,11111222,99999999' 
WAVCIS,ioos:station:WAVCIS:CSI09:1,2013-03-08T17:00:00Z,29.1015,-89.9782,0.0,5.74,64.0,,'11111222,11111222,99999999' 
WAVCIS,ioos:station:WAVCIS:CSI09:1,2013-03-08T18:00:00Z,29.1015,-89.9782,0.0,3.984,70.0,,'11111222,11111222,99999999' 
WAVCIS,ioos:station:WAVCIS:CSI09:1,2013-03-08T19:00:00Z,29.1015,-89.9782,0.0,3.925,64.0,,'11111222,11111222,99999999' 
WAVCIS,ioos:station:WAVCIS:CSI09:1,2013-03-08T20:00:00Z,29.1015,-89.9782,0.0,4.515,65.0,,'11111222,11111222,99999999' 
WAVCIS,ioos:station:WAVCIS:CSI09:1,2013-03-08T21:00:00Z,29.1015,-89.9782,0.0,4.389,67.0,,'11111222,11111222,99999999' 
WAVCIS,ioos:station:WAVCIS:CSI09:1,2013-03-08T22:00:00Z,29.1015,-89.9782,0.0,3.441,67.0,,'11111222,11111222,99999999' 
WAVCIS,ioos:station:WAVCIS:CSI09:1,2013-03-08T23:00:00Z,29.1015,-89.9782,0.0,4.127,63.0,,'11111222,11111222,99999999' 
WAVCIS,ioos:station:WAVCIS:CSI09:1,2013-03-09T00:00:00Z,29.1015,-89.9782,0.0,6.508,64.0,,'11111222,11111222,99999999' 
WAVCIS,ioos:station:WAVCIS:CSI09:1,2013-03-09T01:00:00Z,29.1015,-89.9782,0.0,8.16,73.0,,'11111222,11111222,99999999' 
WAVCIS,ioos:station:WAVCIS:CSI09:1,2013-03-09T02:00:00Z,29.1015,-89.9782,0.0,3.575,88.0,,'11111222,11111222,99999999' 
WAVCIS,ioos:station:WAVCIS:CSI09:1,2013-03-09T03:00:00Z,29.1015,-89.9782,0.0,3.129,87.0,,'11111222,11111222,99999999' 
WAVCIS,ioos:station:WAVCIS:CSI09:1,2013-03-09T04:00:00Z,29.1015,-89.9782,0.0,2.848,88.0,,'11111222,11111222,99999999' 
WAVCIS,ioos:station:WAVCIS:CSI09:1,2013-03-09T05:00:00Z,29.1015,-89.9782,0.0,3.493,88.0,,'11111222,11111222,99999999' 
WAVCIS,ioos:station:WAVCIS:CSI09:1,2013-03-09T06:00:00Z,29.1015,-89.9782,0.0,3.915,80.0,,'11111222,11111222,99999999' 
WAVCIS,ioos:station:WAVCIS:CSI09:1,2013-03-09T07:00:00Z,29.1015,-89.9782,0.0,4.519,88.0,,'11111222,11111222,99999999' 